Location: Kawakawa
(35.3830°S, 174.0670°E)
Time: 03:00:27
(UTC+13:00)

Atlas Centaur 2 - Pass Details

Date: 24 January 2019
Orbit: 459 x 1311 km, 30.4° (Epoch: 13 October)

Event Time Altitude Azimuth Distance (km) Brightness Sun altitude
Rises 22:23:20 0° 283° (WNW) 4,191 6.3 -18.9°
Reaches altitude 10° 22:26:13 10° 286° (WNW) 3,281 5.6 -19.3°
Maximum altitude 22:34:34 62° 4° (N) 1,456 3.1 -20.5°
Enters shadow 22:39:07 29° 73° (ENE) 2,156 3.8 -21.2°
